Location: Morlupo
(42.1333°N, 12.5000°E)
Time: 17:02:24
(UTC+00:00)

CZ-2C R/B - Pass Details

Date: 18 September 2020
Orbit: 704 x 907 km, 98.1° (Epoch: 20 October)

Event Time Altitude Azimuth Distance (km) Brightness Sun altitude
Rises 17:54:54 0° 161° (SSE) 3,221 5.9 -8.4°
Reaches altitude 10° 17:57:08 10° 160° (SSE) 2,327 5.2 -8.8°
Maximum altitude 18:02:17 78° 75° (ENE) 836 3.1 -9.8°
Drops below altitude 10° 18:07:46 10° 350° (N) 2,478 5.9 -10.8°
Sets 18:10:13 0° 349° (N) 3,446 6.7 -11.2°
